Location: Rio de Janeiro
(22.9068°S, 43.1729°W)
Time: 14:12:24
(UTC-03:00)

Hubble Space Telescope - Visible Passes

Search period start: 25 July 2024 00:00
Search period end: 04 August 2024 00:00
Orbit: 509 x 513 km, 28.5° (Epoch: 24 July)

Date Brightness Start Highest point End Pass type
(mag) Time Alt. Az. Time Alt. Az. Time Alt. Az.
25 Jul 3.0 04:19:03 20° ESE 04:19:03 20° ESE 04:20:35 10° ESE visible
25 Jul 0.7 05:53:49 11° WSW 05:57:38 77° SSE 06:01:38 10° ENE visible
26 Jul 3.8 04:00:37 13° ESE 04:00:37 13° ESE 04:01:07 10° ESE visible
26 Jul 0.6 05:35:23 20° WSW 05:38:05 87° SSE 05:42:06 10° ENE visible
27 Jul 0.6 05:16:58 36° WSW 05:18:31 83° NNW 05:22:32 10° ENE visible
28 Jul 0.6 04:58:33 66° WNW 04:58:57 73° NNW 05:02:56 10° ENE visible
29 Jul 1.4 04:40:10 49° NNE 04:40:10 49° NNE 04:43:18 10° ENE visible
30 Jul 2.7 04:21:48 25° NE 04:21:48 25° NE 04:23:38 10° NE visible
30 Jul 3.0 05:58:17 10° NW 05:59:57 12° NNW 06:01:38 10° N visible
31 Jul 3.7 04:03:27 13° NE 04:03:27 13° NE 04:03:55 10° NE visible
31 Jul 3.1 05:39:44 10° NW 05:40:17 10° NNW 05:40:50 10° NNW visible
31 Jul 3.3 19:15:29 10° N 19:15:41 11° N 19:15:41 11° N visible
01 Aug 2.8 18:55:16 10° N 18:57:22 15° NNE 18:57:22 15° NNE visible
02 Aug 2.5 18:35:11 10° NNW 18:37:53 18° NNE 18:39:01 16° NE visible
03 Aug 2.4 18:15:10 10° NNW 18:18:10 21° NNE 18:20:38 12° ENE visible
03 Aug 3.5 19:54:31 10° WNW 19:55:24 16° WNW 19:55:24 16° WNW visible
